Weather History for Gastonia, NC

Change the Weather History Date:

Sunday, March 3, 2013

  Actual Average (KCLT) Record (KCLT)
Temperature  
Mean Temperature 35 °F 48 °F  
Max Temperature 46 °F 59 °F 84 °F (1976)
Min Temperature 24 °F 36 °F 4 °F (1980)
Degree Days  
Heating Degree Days 30 17  
Month to date heating degree days 53  
Since 1 July heating degree days 2752  
Cooling Degree Days 0 0  
Month to date cooling degree days 0  
Year to date cooling degree days 0  
Moisture  
Dew Point 17 °F    
Average Humidity 51    
Maximum Humidity 77    
Minimum Humidity 28    
Precipitation  
Precipitation 0.00 in 0.12 in 3.04 in (1952)
Month to date precipitation 0.39  
Year to date precipitation 7.12  
Snow  
Snow 0.00 in 0.00 in 1.50 in (1960)
Month to date snowfall 0.1  
Since 1 July snowfall 3.8  
Snow Depth -    
Sea Level Pressure  
Sea Level Pressure 29.96 in    
Wind  
Wind Speed 5 mph (NNE)    
Max Wind Speed 8 mph    
Max Gust Speed -    
Visibility 10 miles    
Events      
T = Trace of Precipitation, MM = Missing Value Source: NWS Daily Summary

Daily Weather History Graph

Daily Weather History Graph

Search for Another Location

Airport:

Trip Planner

Search our weather history database for the weather conditions in past years. The results will help you decide how hot, cold, wet, or windy it might be!

Date:

Astronomy

Mar. 03, 2013 Rise Set
Actual Time 6:51 AM EST 6:22 PM EST
Civil Twilight 6:25 AM EST 6:47 PM EST
Nautical Twilight 5:56 AM EST 7:17 PM EST
Astronomical Twilight 5:27 AM EST 7:46 PM EST
Moon No Moon Rise 10:19 AM EST (3/3)
Length of Visible Light 12h 21m
Length of Day
11h 30m
Waning Gibbous, 64% of the Moon is Illuminated
Mar 3
Waning Gibbous
Mar 4
Last Quarter
Mar 11
New
Mar 19
First Quarter
Mar 27
Full

Hourly Weather History & Observations

Time (EST) Temp. Windchill Dew Point Humidity Pressure Visibility Wind Dir Wind Speed Gust Speed Precip Events Conditions
12:54 AM 30.0 °F 23.2 °F 21.0 °F 69% 29.95 in 10.0 mi ENE 6.9 mph - N/A   Clear
1:54 AM 28.9 °F 22.8 °F 21.0 °F 72% 29.95 in 10.0 mi NE 5.8 mph - N/A   Clear
2:54 AM 28.9 °F 23.9 °F 19.9 °F 69% 29.94 in 10.0 mi North 4.6 mph - N/A   Clear
3:54 AM 28.0 °F 22.8 °F 18.0 °F 66% 29.93 in 10.0 mi Variable 4.6 mph - N/A   Clear
4:54 AM 27.0 °F 23.0 °F 18.0 °F 69% 29.95 in 10.0 mi Variable 3.5 mph - N/A   Clear
5:54 AM 27.0 °F - 18.0 °F 69% 29.96 in 10.0 mi Calm Calm - N/A   Clear
6:54 AM 24.1 °F 19.7 °F 18.0 °F 77% 29.97 in 10.0 mi NNE 3.5 mph - N/A   Clear
7:54 AM 30.9 °F 25.2 °F 19.9 °F 64% 29.98 in 10.0 mi ENE 5.8 mph - N/A   Clear
8:54 AM 34.0 °F 28.8 °F 18.0 °F 52% 29.99 in 10.0 mi Variable 5.8 mph - N/A   Clear
9:54 AM 36.0 °F 29.6 °F 17.1 °F 46% 29.99 in 10.0 mi North 8.1 mph - N/A   Clear
10:54 AM 37.9 °F 32.7 °F 17.1 °F 43% 29.98 in 10.0 mi North 6.9 mph - N/A   Clear
11:54 AM 41.0 °F 35.8 °F 16.0 °F 36% 29.96 in 10.0 mi North 8.1 mph - N/A   Clear
12:54 PM 42.1 °F 38.4 °F 16.0 °F 35% 29.94 in 10.0 mi Variable 5.8 mph - N/A   Clear
1:54 PM 45.0 °F 42.6 °F 16.0 °F 31% 29.91 in 10.0 mi Variable 4.6 mph - N/A   Clear
2:54 PM 46.0 °F 43.1 °F 16.0 °F 30% 29.91 in 10.0 mi Variable 5.8 mph - N/A   Clear
3:54 PM 46.0 °F 44.8 °F 15.1 °F 29% 29.90 in 10.0 mi Variable 3.5 mph - N/A   Clear
4:54 PM 46.0 °F 43.9 °F 14.0 °F 28% 29.90 in 10.0 mi Variable 4.6 mph - N/A   Clear
5:54 PM 43.0 °F 38.8 °F 16.0 °F 34% 29.93 in 10.0 mi Variable 6.9 mph - N/A   Clear
6:54 PM 39.0 °F 36.8 °F 16.0 °F 39% 29.96 in 10.0 mi Variable 3.5 mph - N/A   Clear
7:54 PM 36.0 °F 29.6 °F 16.0 °F 44% 29.98 in 10.0 mi NNW 8.1 mph - N/A   Clear
8:54 PM 34.0 °F 28.8 °F 16.0 °F 48% 30.00 in 10.0 mi Variable 5.8 mph - N/A   Clear
9:54 PM 32.0 °F 27.5 °F 16.0 °F 52% 30.02 in 10.0 mi Variable 4.6 mph - N/A   Clear
10:54 PM 30.0 °F 24.1 °F 16.0 °F 56% 30.02 in 10.0 mi Variable 5.8 mph - N/A   Clear
11:54 PM 30.0 °F - 16.0 °F 56% 30.02 in 10.0 mi Calm Calm - N/A   Clear